Regional Weather Roundup
Issued by NWS

Home | Current Version | Previous Version | Text Only | Print | Product List | Glossary Off
Versions: 1 2 3 4 5 6 7 8 9 10 11 12 13 14 15 16 17 18 19 20 21 22 23 24 25 26 27 28 29 30 31 32 33 34 35 36 37 38 39 40 41 42 43 44 45 46 47 48 49 50

000
ASUS43 KMKX 301121
RWRWI

WISCONSIN REGIONAL WEATHER ROUNDUP
NATIONAL WEATHER SERVICE MILWAUKEE/SULLIVAN WI
600 AM CDT TUE SEP 30 2014

NOTE: "FAIR" INDICATES FEW OR NO CLOUDS BELOW 12,000 FEET WITH NO
SIGNIFICANT WEATHER AND/OR OBSTRUCTIONS TO VISIBILITY.

WIZ001-002-006>008-014>016-023>028-301200-
NORTHWEST WISCONSIN

CITY           SKY/WX    TMP DP  RH WIND       PRES   REMARKS
SUPERIOR ARPT  CLOUDY    44  40  88 E6        30.15F
ASHLAND        CLOUDY    42  39  89 SE3       30.17S
HAYWARD        CLOUDY    40  37  89 E6        30.14S
SIREN          CLOUDY    42  39  89 E6        30.13S
CUMBERLAND     CLOUDY    37  36  93 E5        30.13S WCI  34
RICE LAKE      CLOUDY    41  37  86 NE6       30.14S
CHETEK         CLOUDY    40  37  88 E6        30.13S
LADYSMITH      CLOUDY    40  37  89 NE5       30.15S
EAU CLAIRE     CLOUDY    42  36  79 E10       30.11F
MENOMONIE      CLOUDY    42  38  84 NE8       30.12F
NEW RICHMOND   CLOUDY    40  38  91 E9        30.11F WCI  35
OSCEOLA        CLOUDY    42  41  97 E6        30.13F
$$

WIZ003>005-009-010-017-018-301200-
NORTH CENTRAL WISCONSIN

CITY           SKY/WX    TMP DP  RH WIND       PRES   REMARKS
MANITOWISH WTR CLOUDY    37  37 100 NE5       30.14R WCI  33
ARBOR VITAE    CLOUDY    39  37  93 N5        30.13S
WOODRUFF       CLOUDY    39  37  93 N5        30.13S
RHINELANDER    CLOUDY    38  36  92 CALM      30.13R
EAGLE RIVER    CLOUDY    37  37  99 NE5       30.12R WCI  34
LAND O LAKES   CLOUDY    38  38  99 N8        30.13S FOG     WCI  32
PHILLIPS       CLOUDY    37  36  94 N7        30.12F WCI  32
TOMAHAWK       CLOUDY    38  35  90 CALM      30.13S
MEDFORD        CLOUDY    37  35  92 E5        30.11F WCI  34
MERRILL        CLOUDY    39  38  95 N3        30.12S
$$

WIZ029-030-035-036-043>047-301200-
CENTRAL WISCONSIN

CITY           SKY/WX    TMP DP  RH WIND       PRES   REMARKS
WAUSAU         CLOUDY    40  36  86 VRB3      30.11F
MOSINEE        CLOUDY    39  39 100 NE9       30.12F WCI  33
MARSHFIELD     CLOUDY    40  36  86 E7        30.11F
STEVENS POINT  CLOUDY    38  36  91 NE6       30.13S WCI  34
WAUPACA        CLOUDY    44  40  85 N5        30.13S
WAUTOMA        NOT AVBL
WISC RAPIDS    CLOUDY    41  36  82 NE6       30.13S
CAMP DOUGLAS   CLOUDY    42  42 100 NE7       30.11F
$$

WIZ011>013-019>022-031-037>040-048>050-301200-
NORTHEAST WISCONSIN

CITY           SKY/WX    TMP DP  RH WIND       PRES   REMARKS
ANTIGO         CLOUDY    38  37  96 CALM      30.11R
SHAWANO        CLOUDY    44  38  79 N8        30.12F
OCONTO         CLOUDY    42  41  94 NE5       30.11S
STURGEON BAY   NOT AVBL
GREEN BAY      CLOUDY    43  39  86 N9        30.12R
MANITOWOC      NOT AVBL
APPLETON       CLOUDY    43  39  87 N9        30.12R
CLINTONVILLE   CLOUDY    43  36  75 N6        30.12S
OSHKOSH        CLOUDY    43  39  86 N9        30.11S
$$

WIZ032>034-041-042-053>061-301200-
SOUTHWEST WISCONSIN

CITY           SKY/WX    TMP DP  RH WIND       PRES   REMARKS
LA CROSSE      CLOUDY    48  41  76 E7        30.10S
SPARTA         CLOUDY    43  40  89 NE7       30.11S
VIROQUA        CLOUDY    43  43 100 E5        30.08S
BOSCOBEL       CLOUDY    48  44  86 E8        30.09S
PRAIRIE DU CHI CLOUDY    50  44  79 NE6       30.06F
PLATTEVILLE    CLOUDY    47  44  91 E9        30.08R
$$

WIZ056-057-062-063-064-067-068-301200-
SOUTH CENTRAL WISCONSIN

CITY           SKY/WX    TMP DP  RH WIND       PRES   REMARKS
REEDSBURG      CLOUDY    43  40  89 E3        30.10S
BARABOO/DELLS  CLOUDY    42  39  88 E8        30.10S
LONE ROCK      CLOUDY    50  42  74 E8        30.10S
MINERAL POINT  CLOUDY    45  43  93 E10       30.07S
MADISON        CLOUDY    45  40  82 NE13      30.10R
MIDDLETON      CLOUDY    46  41  85 NE5       30.10R
WATERTOWN      CLOUDY    43  41  94 N6        30.09S
MONROE         CLOUDY    45  43  93 NE10      30.07S
JANESVILLE     CLOUDY    48  41  76 NE14      30.07S
$$

WIZ051-052-058>065-066-070>072-301200-
SOUTHEAST WISCONSIN

CITY           SKY/WX    TMP DP  RH WIND       PRES   REMARKS
MILWAUKEE      CLOUDY    46  39  76 NW10      30.07S
WAUKESHA       CLOUDY    41  39  93 N8        30.10S
MILWAUKEE/TIMM CLOUDY    43  37  81 N8        30.09S
RACINE         CLOUDY    45  42  89 NW9       30.08S FOG
BURLINGTON     CLOUDY    42  39  86 N7        30.08S
KENOSHA        CLOUDY    45  43  93 N7        30.07S
FOND DU LAC    CLOUDY    45  39  79 NE13      30.10S
SHEBOYGAN      CLOUDY    44  39  82 N8        30.09S
WEST BEND      CLOUDY    43  36  75 N6        30.08F
JUNEAU         CLOUDY    42  39  88 N8        30.11R
$$

LSZ147-162-301200-
LAKE SUPERIOR

STATION/POSITION TIME  TEMP    WIND        PRES    WAVE
                       AIR SEA DIR/SP/G            HT/PER
                 (UTC) (F)     (DEG/KT/KT) (MB)    (FT/S)
W MID LAKE BUOY  1050   44 49  100/ 10/ 12 1022.0R   3/ 6
DEVILS ISLAND    1100   44      70/ 10/ 12 1022.3S
SAXON HARBOR     1000   44      80/  4/  8 1021.7R
$$

LMZ867-665-643>646-301200-
LAKE MICHIGAN

STATION/POSITION TIME  TEMP    WIND        PRES    WAVE
                       AIR SEA DIR/SP/G            HT/PER
                 (UTC) (F)     (DEG/KT/KT) (MB)    (FT/S)
CHAMBERS ISLAND  1000   45     330/ 18/ 22 1019.0S
S GREEN BAY BUOY 1100   45                 1020.4R
N MID LAKE BUOY  1050   47 58  360/ 16/ 19 1018.2R   4/ 5
NORTHPORT PIER   1000   46     360/ 17/ 20 1018.6S
KEWAUNEE LAKESHO 1100   44     340/  5/  8 1018.1R
SHEBOYGAN LAKESH 1100   45 54  330/ 13/ 15 1019.3S
PORT WASHINGTON  1040          340/  5/ 10 1019.3S
ATWATER BUOY     1100   48     340/ 14/ 19 1019.3R
MILWAUKEE LAKESH 1100          320/  8/ 13   N/A
S MID LAKE BUOY  1050   51 61  350/ 16/ 21 1016.9R   7/ 8
KENOSHA   LAKESH 1100          320/ 12/ 15 1017.9R
$$

TC  - TEMPERATURE IN CELSIUS
VSB - VISIBILITY IN STATUTE MILES
WCI - WIND CHILL INDEX
HX  - HEAT INDEX



USA.gov is the U.S. government's official web portal to all federal, state and local government web resources and services.